RH
4 4 4 4 3 3 3 3 3 3 3 2 2 2 2 2 1 1 2 2 2 2 2 2 1 1 2 2 2 1 1 2 2 3 3 2 2 2 2 4 6 9 14 17 26 28 30 36 34 46 59 57 57 61 77 87 85 89 86 85 94 96 93 87 79 76 71 75 75 58 49 38 16 10 13 20 34 48 56 51 45 50 58 61 58 52 44 41
4 4 4 4 4 4 4 4 3 3 3 3 3 2 2 2 2 1 1 2 1 2 2 2 2 1 2 1 2 2 1 2 2 2 3 3 2 2 2 3 5 6 11 18 29 31 28 35 35 42 54 56 54 54 71 82 82 89 83 83 96 99 98 93 89 86 68 62 70 62 54 43 23 13 10 11 17 26 42 46 45 54 62 63 63 58 49 43
5 4 4 4 4 4 4 4 4 4 3 3 3 3 3 2 2 2 1 2 1 2 2 2 2 2 2 1 2 2 2 2 1 2 2 3 2 2 2 2 4 5 9 16 26 29 25 31 35 42 52 56 56 56 70 80 84 89 77 80 95 96 99 98 94 90 71 62 67 59 50 40 28 20 11 9 16 22 30 35 36 46 53 54 58 60 58 52
5 5 4 4 4 4 4 4 4 4 4 4 3 3 3 2 2 2 2 2 1 2 1 2 2 2 2 1 1 1 2 2 2 2 1 2 2 3 2 2 3 3 7 12 20 24 21 26 34 42 51 59 61 59 70 76 81 90 84 88 95 91 96 100 96 87 72 70 67 52 47 42 29 24 19 13 16 21 23 23 26 35 40 41 47 55 59 56
5 5 5 5 5 5 5 5 5 4 4 4 4 4 3 3 3 2 2 2 2 2 1 2 2 2 2 2 2 1 2 2 2 2 1 2 2 2 2 2 2 2 5 8 17 21 19 25 34 41 48 59 64 64 72 76 82 94 94 94 97 94 94 94 91 87 80 74 61 48 51 44 23 19 22 19 18 18 16 18 24 30 32 34 38 43 47 48
5 5 5 5 5 6 5 5 6 5 5 5 4 4 4 3 3 3 3 2 2 2 2 2 1 2 2 2 2 1 2 2 2 2 2 2 2 2 2 2 1 2 3 6 13 18 20 25 31 39 47 55 61 66 74 77 85 93 91 92 96 96 91 82 78 86 90 78 63 53 44 30 18 15 14 16 20 16 11 16 25 27 26 28 31 33 34 34
6 5 5 6 6 6 6 6 6 6 6 6 5 5 5 4 4 3 3 3 3 2 2 2 2 2 1 2 2 2 2 2 2 2 2 2 2 2 2 3 2 1 2 4 8 14 20 23 31 40 46 54 57 65 76 81 85 85 83 88 94 93 85 76 75 88 96 83 69 62 49 31 21 14 8 10 16 16 12 16 26 26 20 21 27 30 28 26
7 6 6 6 6 6 7 7 7 6 6 6 6 6 6 5 4 4 3 3 3 3 3 2 2 2 2 2 1 2 2 2 2 2 2 3 2 2 2 2 2 2 2 3 5 11 17 21 33 41 45 56 61 67 82 84 79 78 78 81 90 92 85 80 81 90 95 88 79 77 71 52 29 14 8 8 12 18 15 15 22 23 19 20 32 37 34 28
7 7 7 7 7 7 7 7 7 7 7 6 6 6 6 6 5 5 4 4 3 3 3 3 3 3 2 2 2 2 1 2 2 2 2 2 3 2 2 2 2 2 2 2 4 7 11 18 31 42 50 62 65 66 77 82 73 70 72 73 82 89 90 89 89 89 86 85 85 86 82 61 35 18 10 8 11 16 17 18 19 18 18 20 33 44 42 36
8 7 7 7 7 7 7 7 7 7 7 7 7 6 6 6 6 6 5 5 4 4 3 3 3 3 3 3 2 2 1 2 2 2 2 2 3 2 2 2 2 2 2 2 3 4 8 17 27 42 56 64 66 61 65 79 75 65 65 67 70 76 83 88 92 92 83 79 82 86 83 63 40 23 14 10 12 19 19 19 16 13 16 20 32 43 44 42
9 8 8 7 7 7 7 7 7 7 7 7 6 6 6 6 6 6 6 5 5 5 4 4 4 4 4 3 3 2 2 2 1 2 2 2 2 2 3 2 2 2 2 2 2 4 7 16 24 33 46 55 61 57 55 68 68 59 59 60 58 60 70 77 86 91 84 81 84 87 84 67 46 30 24 20 16 21 20 15 14 13 17 22 35 44 41 42
11 10 9 8 8 7 7 7 7 7 7 7 6 6 6 6 6 6 6 6 6 6 5 5 4 4 4 4 3 3 3 2 2 2 1 2 2 2 2 2 2 2 2 2 2 3 5 11 16 19 31 43 48 51 55 61 59 54 52 48 44 46 56 71 89 91 81 84 87 87 83 71 54 34 30 32 24 18 15 15 14 13 17 21 30 41 40 40
12 11 10 9 9 8 8 7 7 7 7 7 6 6 6 6 6 6 6 6 6 6 6 6 6 5 5 4 4 3 3 3 2 2 2 2 1 2 2 2 3 2 2 3 2 3 4 6 8 11 22 32 36 41 51 57 56 52 45 35 31 33 43 63 86 86 76 82 87 87 85 75 59 39 32 40 43 30 13 12 15 12 16 20 25 35 41 41
12 11 11 10 10 9 8 8 8 8 7 7 6 6 6 6 6 6 6 6 6 6 6 7 7 7 6 4 4 4 4 4 3 3 2 2 2 2 2 2 2 2 2 2 2 2 3 4 5 8 13 19 30 42 51 55 52 49 41 31 27 29 37 50 66 69 69 81 87 87 86 77 62 47 38 37 53 57 31 12 13 13 13 19 23 31 41 35
15 13 12 11 10 10 9 9 9 8 8 7 6 6 6 6 6 6 6 6 6 6 6 7 7 7 7 5 5 5 4 4 3 3 3 2 2 2 2 2 2 2 3 2 2 2 2 3 2 5 6 10 24 39 52 55 48 45 40 36 36 33 37 48 57 63 71 83 84 79 80 76 63 54 47 36 45 67 55 21 8 12 11 18 23 26 37 29
18 17 16 15 14 12 11 11 10 10 9 7 7 6 5 6 6 6 6 6 6 6 6 7 7 8 8 6 6 6 5 4 4 4 3 3 3 2 2 2 2 2 3 2 2 2 2 2 2 3 4 7 13 26 47 49 42 45 41 41 43 36 42 57 65 70 79 85 78 70 73 70 59 51 45 37 36 51 54 26 5 9 9 15 23 23 33 27
19 19 18 18 17 16 15 14 13 13 11 9 9 8 6 6 7 6 5 6 6 6 6 7 7 8 8 7 6 6 5 5 5 4 4 4 3 3 2 2 2 2 2 2 2 2 2 2 2 2 2 4 6 15 28 27 27 36 36 43 44 39 50 65 71 75 79 80 72 68 69 63 56 52 48 43 38 41 50 33 8 6 6 10 22 24 31 26
21 20 19 19 18 18 17 17 16 16 14 11 11 10 8 7 7 7 6 6 6 6 6 7 8 8 9 8 8 7 6 6 6 5 4 4 3 3 3 2 2 1 2 2 2 2 2 2 2 2 2 2 3 6 8 9 21 32 39 48 43 41 58 67 72 77 76 74 71 68 67 65 63 61 61 60 49 42 49 39 13 5 7 8 16 25 32 28
22 22 22 20 19 18 18 18 17 17 16 13 12 12 11 10 8 7 7 7 7 6 6 7 8 10 10 9 9 7 7 6 6 6 5 4 4 3 3 3 2 2 2 2 2 2 2 2 2 2 2 2 2 3 3 10 25 36 49 56 44 42 53 56 67 77 75 74 72 68 68 70 68 63 66 70 59 46 45 43 27 11 9 11 11 17 29 29
22 23 23 23 21 19 18 18 18 17 16 15 14 13 13 13 12 10 10 9 8 7 6 7 8 10 11 10 9 8 8 7 6 6 6 5 4 4 4 3 3 2 2 2 2 2 2 2 2 2 2 2 2 3 4 12 23 32 47 59 52 45 45 49 66 77 73 71 70 68 69 70 69 67 69 72 66 54 44 45 44 26 13 13 11 9 18 26
20 21 22 23 23 21 19 19 18 17 16 15 14 14 14 14 13 12 11 11 10 7 7 7 7 11 12 9 9 9 8 8 7 7 7 6 5 4 4 4 3 3 3 3 2 2 2 1 1 2 2 2 2 2 4 9 18 24 31 47 51 44 47 57 66 73 73 72 72 71 70 70 71 72 73 72 68 59 45 40 47 45 27 16 13 7 10 20
20 20 21 22 23 22 20 19 19 17 16 15 15 16 15 13 12 11 10 11 12 10 9 8 7 10 12 10 9 9 9 10 9 8 7 7 6 5 5 4 4 3 3 3 2 2 2 1 2 2 2 3 2 2 3 5 14 18 18 33 45 44 52 63 66 71 74 72 72 71 69 70 71 73 73 68 65 59 47 36 39 48 42 25 18 12 9 16
17 19 20 22 24 23 22 21 20 19 18 17 17 17 15 13 11 10 10 11 14 14 11 11 9 9 12 13 10 7 8 11 10 9 8 7 7 6 6 5 4 4 3 3 2 3 2 2 2 2 3 3 2 3 2 3 8 12 12 21 39 48 52 62 68 70 72 69 69 69 68 69 69 73 71 64 63 59 49 40 36 43 49 37 24 19 13 12
14 16 18 20 23 23 23 22 21 20 19 19 20 18 16 15 13 12 11 10 13 16 13 11 10 10 14 15 10 7 9 12 10 10 9 8 8 7 6 6 5 4 3 3 3 2 3 3 2 2 3 2 3 3 2 3 3 6 8 11 32 54 55 60 68 68 69 70 70 70 68 69 70 71 72 67 65 62 54 48 41 43 50 42 29 24 20 12
13 14 16 18 21 23 23 21 21 21 20 21 22 20 18 17 15 14 14 11 11 16 16 12 10 12 14 13 11 11 11 11 11 12 10 9 9 8 7 7 6 5 4 4 4 3 3 3 3 2 2 2 2 3 2 3 2 3 6 4 18 44 51 57 67 69 71 73 76 78 73 72 74 73 73 71 67 66 64 57 48 46 48 42 32 27 24 18
12 12 14 17 19 23 24 21 22 21 19 21 23 22 20 18 17 16 16 14 12 16 17 15 12 11 12 12 13 12 11 11 13 12 10 10 10 9 8 7 7 6 6 5 4 4 3 3 3 2 2 2 2 3 2 3 2 2 4 5 12 30 43 57 68 68 70 73 79 82 77 75 78 76 74 73 70 68 68 62 53 50 48 45 41 34 27 22
11 10 11 14 16 21 25 23 22 22 21 22 23 23 20 18 18 18 17 15 14 15 16 16 15 13 12 12 13 11 12 14 13 11 11 12 11 9 8 8 7 7 7 6 5 4 4 3 3 3 3 3 2 2 2 2 3 2 3 8 16 28 43 61 70 68 67 69 72 76 77 76 76 76 75 76 75 68 64 62 57 52 48 46 47 42 32 26
9 9 8 11 11 15 24 25 21 21 24 24 24 23 21 20 20 20 20 17 15 16 16 15 15 15 14 12 12 13 14 14 13 13 14 13 12 10 9 8 8 8 7 7 6 5 5 3 3 3 3 3 2 2 2 2 2 2 3 8 17 31 48 64 70 68 67 69 70 73 77 76 74 75 77 78 75 63 56 58 60 58 50 47 50 48 39 31
7 8 7 10 10 10 17 22 19 20 22 23 24 24 23 23 22 22 21 18 17 17 16 16 16 16 16 14 14 14 14 14 14 14 13 13 13 12 11 10 10 9 8 7 7 6 5 4 4 3 3 3 3 2 2 3 2 3 3 5 16 33 48 63 69 67 67 69 69 71 74 71 69 72 77 76 63 50 49 57 63 63 57 51 52 50 43 35
6 7 7 9 11 11 13 15 16 18 20 20 23 24 24 23 23 23 20 18 19 19 18 19 18 17 17 18 17 16 16 17 17 15 13 13 13 12 13 12 11 10 9 8 8 7 6 6 5 4 3 3 3 3 2 2 3 3 3 3 12 30 44 54 59 64 70 67 63 66 68 67 63 59 60 56 48 46 52 58 61 64 61 55 51 48 44 39
6 7 8 7 10 12 13 12 12 17 19 18 20 22 23 23 23 21 18 18 21 21 21 23 20 18 18 19 19 18 18 18 18 16 15 13 12 12 13 13 12 11 10 9 9 9 8 7 6 5 4 3 3 3 3 2 2 3 4 3 6 22 39 40 37 51 63 57 55 61 64 66 55 41 38 37 40 50 54 56 61 64 62 56 52 48 43 42
9 10 10 8 8 12 14 12 10 13 17 18 20 21 22 22 19 17 17 19 22 22 23 23 21 18 17 17 17 18 19 19 19 18 18 16 14 12 12 13 14 13 12 11 11 11 10 8 8 6 5 5 4 3 3 3 3 2 3 3 3 11 25 24 16 27 36 28 39 59 65 61 45 30 35 39 37 39 42 51 61 61 58 57 57 53 45 41
14 14 15 12 9 10 13 14 11 10 13 15 16 19 22 21 15 13 17 20 22 24 24 23 21 19 18 16 16 16 18 19 20 20 20 19 17 15 14 14 15 14 13 13 13 12 11 10 9 7 6 6 4 4 4 3 3 3 3 3 2 4 9 9 6 12 15 10 26 55 63 57 43 29 31 35 29 27 32 45 55 54 53 57 60 59 49 43
18 18 20 18 12 9 11 14 13 12 14 15 15 15 17 16 12 13 17 20 24 27 26 23 21 21 20 18 18 17 17 19 21 20 20 20 18 16 15 14 13 13 13 14 14 13 12 11 10 9 8 7 6 5 4 4 4 3 3 3 3 3 2 3 5 8 10 9 23 48 59 55 46 29 24 31 33 27 26 34 43 46 48 53 60 60 48 41
23 22 23 22 18 14 13 16 16 16 17 18 18 16 13 11 12 15 18 20 23 26 25 22 22 23 21 20 20 20 20 21 24 24 21 20 18 16 17 16 16 15 14 14 14 13 13 12 12 11 9 8 7 6 5 4 4 3 4 5 4 4 3 3 5 4 6 11 15 26 38 38 33 27 30 42 45 35 28 31 39 43 42 45 55 60 51 40
22 22 21 22 21 19 18 18 18 19 19 19 20 18 14 14 16 17 18 19 20 21 23 25 26 24 23 23 23 23 24 24 28 29 24 20 19 18 18 18 17 18 17 16 15 15 14 13 14 14 12 10 9 8 7 5 5 4 4 4 4 5 5 3 3 3 4 8 6 7 15 19 19 23 32 43 44 37 33 31 33 37 36 38 48 56 55 46
18 17 16 17 19 19 19 19 19 19 19 19 19 17 16 17 18 18 19 19 19 20 22 27 29 26 25 26 26 27 28 26 27 29 27 25 21 17 17 18 19 19 19 19 17 16 16 14 16 16 13 12 11 8 8 7 6 6 4 5 5 6 8 6 5 4 3 4 3 3 6 8 10 15 23 33 35 33 34 32 28 33 37 40 45 47 49 48
15 13 11 13 14 15 16 16 16 16 16 16 16 16 16 16 16 17 19 19 20 20 20 22 27 29 28 28 30 33 29 25 26 26 26 27 24 19 19 19 19 19 21 22 20 18 18 14 15 18 16 13 12 10 9 8 7 7 6 7 7 6 7 8 6 5 4 4 3 2 3 3 4 6 10 17 22 24 28 30 28 28 32 38 45 46 45 47
12 10 8 8 9 10 11 12 12 12 12 13 13 13 14 13 14 15 16 17 18 19 19 19 22 28 30 29 33 39 33 25 27 27 22 22 22 20 23 24 22 22 24 26 24 21 21 17 13 17 19 16 14 12 11 10 8 7 7 7 7 6 5 6 6 5 5 5 4 2 3 3 2 3 3 9 20 30 32 34 33 25 24 36 46 50 51 49
8 7 5 5 6 7 8 8 8 8 8 9 9 10 10 10 11 11 12 13 14 16 17 18 19 22 27 28 32 42 40 30 29 30 22 19 20 18 23 29 28 26 27 28 27 25 24 21 16 17 20 19 17 14 12 11 9 7 7 7 6 6 5 5 6 6 7 7 7 5 3 2 2 2 4 6 21 40 46 48 49 35 25 34 41 42 47 47
5 5 3 4 4 5 5 5 5 6 6 6 6 6 7 7 7 8 9 10 11 13 14 16 18 18 23 28 34 46 50 38 30 31 25 22 23 21 26 40 45 41 36 29 27 28 27 23 17 16 19 18 17 17 15 13 11 9 8 7 7 5 5 5 4 5 7 7 8 7 4 2 2 2 3 4 14 36 43 44 50 43 31 34 41 44 47 46
3 3 2 3 3 3 3 3 3 4 4 4 4 4 4 5 5 6 7 7 8 10 11 13 15 15 19 24 32 48 58 49 37 32 27 25 29 30 34 47 54 51 44 34 27 29 32 30 24 18 18 20 19 19 18 14 13 14 11 9 11 9 6 6 5 4 5 5 6 7 4 3 3 3 4 5 16 32 34 29 35 37 38 49 56 59 59 50
2 2 2 2 2 2 2 2 3 3 3 3 3 3 3 3 4 4 5 5 7 7 8 10 12 13 15 17 24 41 55 53 46 39 32 30 36 41 41 37 34 35 41 45 45 47 46 38 29 24 21 23 23 20 18 17 19 21 18 14 15 14 10 7 7 6 5 4 5 5 4 4 3 4 4 7 20 35 38 37 37 37 46 61 64 65 68 57
2 2 2 2 2 2 2 2 2 2 2 2 2 2 3 3 3 3 4 4 4 6 7 8 9 11 13 12 16 32 48 53 54 53 45 36 36 40 40 33 27 31 42 47 49 56 54 39 31 32 26 23 25 23 19 18 20 22 18 15 13 14 14 12 9 8 7 5 5 5 5 4 3 5 5 9 26 41 46 49 51 51 57 64 64 65 69 62
2 2 3 3 2 2 2 2 2 2 2 2 2 2 2 2 3 2 3 4 4 5 5 6 8 8 10 12 12 23 39 47 52 58 56 48 43 40 38 37 37 39 45 46 43 43 41 34 34 34 26 19 20 20 18 17 17 17 15 14 14 14 18 19 13 9 7 6 6 5 5 5 4 4 4 11 31 48 52 53 57 59 61 63 63 63 64 65
2 2 3 3 3 3 3 4 3 2 3 3 2 3 2 2 3 3 3 4 3 5 5 4 7 7 8 11 11 17 30 38 45 57 64 62 59 54 47 45 45 43 45 54 58 50 40 34 31 28 23 20 18 19 21 19 16 16 14 14 17 18 20 22 19 14 8 6 7 5 4 5 4 4 3 6 23 43 51 54 58 60 60 61 64 63 63 66
5 7 8 8 7 5 4 6 6 4 5 6 4 5 5 3 4 4 5 6 5 5 6 4 5 7 8 10 11 15 24 31 39 52 63 67 67 62 55 51 52 49 48 58 65 62 54 41 27 21 20 21 21 24 27 24 19 18 17 14 16 21 26 24 17 13 11 9 8 6 6 6 3 5 5 1 10 31 46 52 57 59 59 59 59 59 63 68
20 27 34 34 28 22 16 13 13 11 9 11 9 7 10 10 9 9 8 9 9 7 7 7 7 7 6 7 10 13 19 30 39 46 56 67 70 66 61 57 56 55 56 62 66 66 63 50 35 28 24 22 24 27 29 28 24 22 22 18 16 20 28 27 18 15 16 13 9 7 7 7 5 5 5 7 18 31 39 46 53 56 56 55 52 53 58 66
50 63 71 68 58 54 47 38 37 32 25 26 24 17 18 19 17 17 15 15 18 17 13 10 9 10 7 6 9 11 16 29 42 48 56 68 72 67 62 60 59 58 62 66 66 67 64 55 50 47 34 26 27 28 29 31 29 27 28 25 20 18 24 29 28 25 21 16 13 13 10 7 8 8 6 17 37 42 36 41 48 52 55 54 52 54 57 62
78 88 94 91 85 82 76 70 70 65 57 58 55 46 45 40 30 27 26 24 25 28 28 22 14 12 10 7 8 9 13 24 40 55 66 73 73 67 62 62 62 61 65 66 65 65 63 55 55 58 46 33 31 32 33 32 31 31 34 33 28 23 25 33 39 37 29 20 17 18 15 9 9 12 9 15 33 42 41 41 40 43 49 50 49 52 54 56
92 96 96 96 97 98 95 92 92 85 81 87 85 77 74 68 58 51 46 43 39 36 39 38 29 21 14 10 10 11 12 15 29 55 76 79 75 70 64 63 65 64 64 66 66 63 62 58 55 60 57 42 38 45 44 39 37 35 35 38 38 34 31 33 37 39 35 29 24 20 17 13 11 12 11 10 16 26 38 43 39 40 48 49 50 55 55 57
96 96 95 89 90 98 101 102 101 95 92 97 97 90 82 76 74 68 57 57 57 49 45 46 45 39 28 19 16 16 19 17 15 40 77 89 80 72 67 63 65 67 64 65 68 64 61 61 57 59 61 50 46 55 56 53 52 41 30 36 46 47 42 37 38 42 44 43 39 27 17 15 15 12 10 10 12 16 28 39 42 46 54 55 56 61 62 61
Wind_Speed
8 8 7 7 7 7 7 7 7 7 6 6 7 7 7 7 8 8 8 8 8 8 8 7 6 7 9 12 12 12 10 10 10 6 2 3 6 8 8 10 9 9 9 9 9 10 11 12 13 13 11 12 14 13 11 10 10 9 7 7 6 3 2 4 6 5 3 2 5 8 9 8 4 4 4 3 3 3 4 4 4 4 3 3 4 4 4 6
9 9 8 8 8 8 8 8 8 8 7 7 7 7 7 7 7 7 7 7 7 7 7 7 6 6 7 9 12 12 12 11 12 9 6 7 8 8 9 10 9 9 9 9 11 12 12 12 14 14 12 12 13 13 12 11 9 7 7 8 5 1 1 5 6 9 7 1 6 8 6 7 4 4 3 3 2 2 3 4 5 5 3 4 4 5 4 5
10 10 10 9 9 9 9 9 9 9 9 8 8 7 7 7 7 7 7 7 7 7 7 7 6 5 5 7 9 11 12 13 13 11 9 9 9 8 8 8 9 9 10 12 14 15 15 14 14 14 12 12 13 12 12 11 9 7 7 8 5 2 2 4 7 12 11 4 8 8 4 5 5 5 3 4 3 1 2 6 6 5 4 5 4 4 5 4
11 10 10 10 10 10 10 10 10 10 10 10 9 8 8 7 6 6 6 6 7 7 7 6 5 5 5 6 7 9 12 15 15 12 12 12 11 10 8 8 9 10 11 13 15 16 16 13 13 13 13 13 14 13 11 10 9 7 7 6 4 2 3 3 7 12 12 8 10 10 7 7 7 5 2 3 1 1 2 4 3 3 4 4 4 4 4 4
11 11 11 10 10 10 10 10 10 10 10 10 10 9 8 8 7 6 6 6 6 6 6 6 6 4 4 5 6 8 11 14 14 13 13 14 13 12 9 8 9 10 11 13 15 17 16 14 14 14 14 14 13 13 11 11 9 7 8 7 5 3 4 6 10 12 11 11 11 11 9 9 7 4 1 2 3 4 4 2 0 2 3 4 4 4 4 4
12 11 11 10 10 10 10 10 10 10 10 11 10 10 9 8 8 7 6 5 5 5 5 6 6 5 4 4 5 7 9 11 12 14 15 15 15 13 11 8 9 11 11 11 14 16 16 16 15 14 14 14 13 13 12 13 12 8 8 8 7 4 4 9 14 14 10 12 13 12 10 10 10 6 3 3 4 4 3 1 0 2 2 3 4 4 4 4
13 12 11 11 11 11 11 11 11 11 11 11 11 11 10 9 9 8 7 6 5 5 5 5 5 5 4 3 4 6 9 9 10 13 15 15 15 14 12 9 9 10 10 11 13 14 16 16 15 15 15 15 14 13 11 13 13 9 7 8 8 5 8 11 13 14 10 11 13 13 14 13 12 9 8 9 6 1 1 2 0 3 3 2 3 4 3 3
14 13 13 12 12 13 13 13 13 12 12 12 12 12 11 11 10 9 8 7 6 6 6 4 4 4 4 4 3 5 8 9 8 9 12 14 15 15 14 11 9 9 10 12 13 15 17 17 16 16 15 14 15 15 15 17 16 12 10 9 8 5 8 10 12 14 12 13 15 16 17 15 12 10 9 10 8 4 2 2 0 2 5 3 1 2 2 2
15 15 14 14 14 14 14 14 14 13 13 13 13 12 12 11 11 10 9 8 7 7 7 6 5 4 4 4 4 4 6 7 7 7 8 12 15 15 15 14 11 9 11 12 14 15 15 16 17 16 15 16 18 20 20 21 19 16 15 11 9 6 4 7 10 11 14 19 18 17 17 14 12 9 9 10 9 6 2 3 2 2 4 3 1 1 2 2
17 16 16 15 15 15 15 15 14 14 14 14 14 13 12 12 12 11 10 9 8 7 7 6 6 5 5 5 4 4 4 6 6 7 7 8 14 17 16 15 13 12 11 12 13 12 11 15 19 19 21 23 23 23 22 22 22 20 17 14 11 7 3 4 6 10 15 21 21 17 16 14 12 9 9 11 9 6 3 4 4 3 3 3 1 1 2 2
18 18 17 17 16 16 16 16 15 15 15 15 15 14 13 13 12 12 12 10 9 8 8 7 6 6 6 6 5 4 4 5 6 6 7 6 11 16 18 17 15 15 13 12 11 12 14 18 22 24 26 25 24 24 22 22 23 22 21 19 14 10 6 2 3 9 14 21 22 17 16 15 13 9 8 10 8 5 4 6 7 5 4 3 1 1 2 3
19 19 19 18 18 18 18 17 17 17 16 16 15 14 14 13 12 13 13 11 10 10 9 8 7 7 8 7 6 5 4 6 6 5 6 6 8 12 17 19 18 16 15 13 12 14 17 20 23 24 24 24 24 24 23 22 22 23 24 23 18 14 11 8 6 7 9 18 23 18 16 16 15 9 6 8 7 5 4 7 8 7 5 4 3 2 2 3
20 20 20 20 20 20 19 19 18 18 17 17 16 15 15 14 13 14 13 13 11 11 10 8 8 8 10 9 6 7 5 4 7 6 5 6 7 8 13 18 20 18 16 15 14 15 18 20 21 20 21 24 22 20 23 25 24 25 25 22 20 17 14 12 9 6 5 16 22 19 16 16 17 10 6 6 7 6 5 6 8 8 6 4 4 2 2 2
20 20 20 20 20 20 20 20 19 19 18 18 17 17 16 15 15 15 14 15 13 12 11 9 8 8 13 12 7 8 6 5 8 8 7 7 7 8 10 14 18 19 19 17 17 17 18 20 20 20 21 21 20 20 22 26 26 26 21 16 16 17 16 12 8 5 4 15 19 15 14 15 17 12 7 6 5 5 4 5 7 8 7 5 4 3 2 2
19 19 20 20 20 20 20 19 20 20 19 18 18 18 18 16 16 16 16 16 15 15 13 11 9 9 14 13 7 8 9 8 9 8 9 8 8 9 9 10 14 18 19 19 19 19 19 20 19 20 18 17 21 23 23 25 25 22 18 13 12 16 15 11 5 3 2 13 15 12 12 13 17 15 10 8 6 5 4 3 5 7 7 5 4 4 2 2
18 18 19 20 21 21 20 20 20 20 20 19 19 20 19 16 17 18 17 17 16 16 15 12 11 10 13 14 9 10 11 11 10 10 11 11 10 10 10 10 11 14 18 20 21 21 21 20 19 18 18 18 20 22 26 27 24 20 18 13 11 13 12 13 8 1 4 12 13 11 12 14 16 16 14 12 8 7 5 2 4 6 7 5 3 4 2 2
19 19 19 19 20 21 21 21 20 21 22 21 20 21 20 17 19 20 19 17 17 18 17 14 12 11 13 14 13 12 11 12 13 12 11 12 12 11 11 11 11 12 15 18 20 22 23 22 20 18 19 19 18 22 25 22 19 18 16 10 9 10 14 18 14 8 8 12 12 12 13 14 15 16 17 17 13 9 7 3 3 5 6 5 4 3 3 3
22 21 21 20 20 20 20 21 21 21 23 23 21 22 22 20 20 21 21 19 19 20 19 15 13 13 14 15 16 15 12 12 13 12 12 12 12 12 12 13 12 12 13 16 17 20 23 22 22 21 20 20 20 22 18 9 10 15 12 7 7 13 17 18 19 15 13 13 13 13 12 14 18 19 19 20 17 12 9 5 3 4 4 5 5 3 4 4
24 24 24 23 23 22 21 21 21 21 23 24 22 22 22 22 22 22 22 21 22 23 22 18 14 14 16 17 18 18 14 13 14 14 13 13 13 13 13 13 13 13 12 13 14 17 19 22 23 22 21 20 18 18 13 8 12 15 12 10 10 15 18 16 18 18 16 14 14 14 14 17 22 23 21 21 19 15 11 6 3 4 3 3 5 5 5 6
27 27 27 27 27 26 24 23 24 23 23 25 24 22 22 22 23 23 22 22 24 25 24 21 17 15 18 20 19 19 18 16 15 15 15 15 15 14 14 14 14 14 12 12 13 15 18 20 20 19 20 19 17 16 15 14 17 17 16 17 15 15 18 16 15 16 16 14 15 16 17 21 24 25 25 22 20 17 12 8 5 5 4 3 4 5 7 7
31 30 29 30 30 30 28 26 26 26 26 26 26 25 24 23 24 24 23 23 24 25 25 24 21 15 19 25 21 19 19 17 15 16 16 17 18 15 15 15 15 14 14 14 15 15 16 14 12 14 18 20 19 18 18 18 20 20 18 18 16 16 19 20 18 18 17 16 17 19 20 22 25 26 27 24 22 20 15 12 8 6 6 5 4 5 7 7
32 32 31 32 32 33 32 30 29 29 29 28 27 28 27 27 27 26 24 21 22 26 25 25 24 18 20 27 24 21 20 16 16 19 19 19 19 17 16 16 15 15 17 17 16 16 13 8 8 13 17 21 22 21 20 20 22 22 19 18 17 17 21 23 22 20 17 16 19 22 22 23 25 26 28 27 23 20 17 13 10 7 6 6 5 6 7 6
33 33 33 33 34 35 36 33 32 33 32 30 30 31 30 30 30 28 26 21 20 26 26 25 26 21 19 24 27 25 20 16 17 19 21 21 20 19 18 17 16 17 18 17 17 17 12 6 8 13 17 21 23 24 23 23 24 24 21 20 20 19 21 23 23 18 15 15 16 19 22 24 26 28 30 29 23 21 18 12 10 8 6 7 7 8 7 5
35 34 34 34 35 37 38 37 35 35 34 33 32 33 34 34 33 30 29 25 20 23 28 27 25 21 20 26 30 26 20 19 19 19 21 22 21 21 18 18 19 18 18 18 19 18 13 10 13 16 17 19 22 24 26 26 25 24 23 22 23 24 21 21 21 17 15 14 15 18 24 28 29 31 32 30 26 23 20 15 11 8 7 8 8 9 8 6
37 36 35 35 35 36 39 40 38 38 37 35 34 35 36 37 36 33 32 31 23 21 28 30 26 22 24 28 28 27 25 23 21 22 23 22 23 22 21 22 20 18 18 20 21 19 15 14 17 17 17 19 21 24 27 26 26 25 24 21 22 27 24 21 22 19 15 15 18 24 29 31 32 32 33 32 28 23 19 17 12 9 9 9 9 10 10 8
38 38 36 36 35 35 38 41 40 40 39 38 35 37 38 38 38 36 34 35 27 22 28 31 28 25 26 28 27 28 28 23 24 27 25 23 23 22 24 23 20 18 19 22 23 19 16 18 20 19 18 19 21 23 25 26 27 25 21 19 21 27 27 26 27 24 18 16 21 29 31 30 32 34 33 31 28 24 21 18 14 12 11 10 10 11 11 9
40 40 38 38 37 36 38 41 41 41 40 39 37 38 40 40 39 38 37 38 31 25 28 30 30 28 26 28 29 27 25 23 27 27 24 24 23 23 24 22 19 19 22 25 22 15 17 22 21 19 19 20 20 20 21 25 27 22 18 22 24 27 30 31 31 29 22 18 20 26 29 28 30 32 31 29 28 27 23 18 17 16 13 11 11 12 12 10
44 43 42 41 40 38 38 41 42 42 41 40 39 40 41 41 40 39 39 42 35 28 29 31 31 30 28 29 29 26 25 26 27 25 25 27 26 25 25 22 20 20 24 27 20 15 20 22 20 20 22 21 17 16 19 24 25 18 19 25 27 28 32 35 35 33 27 24 25 25 26 29 31 30 27 28 30 28 22 18 18 18 16 12 11 12 13 12
47 46 46 44 44 42 41 41 42 44 43 41 41 41 41 41 42 41 43 44 38 31 32 32 32 31 30 31 29 27 28 27 27 28 29 28 26 27 25 24 25 25 27 28 22 19 22 20 20 24 24 20 16 17 20 24 23 17 22 28 29 31 34 36 38 36 32 33 33 30 29 32 33 31 30 32 30 24 18 17 19 19 18 15 14 14 14 14
50 50 49 48 47 46 45 44 43 45 46 44 43 43 42 43 43 44 47 46 38 35 36 34 33 34 34 33 32 31 31 30 31 33 33 30 29 29 28 29 31 30 30 30 24 21 22 22 25 25 22 19 20 21 22 24 22 19 25 30 31 34 35 37 39 37 38 44 41 34 31 32 33 34 34 34 28 20 16 18 19 20 20 19 17 16 15 15
53 53 53 52 50 48 49 48 45 45 47 47 46 45 45 45 45 47 48 43 38 40 40 37 37 37 37 37 36 36 36 35 36 37 36 34 33 32 32 32 33 33 33 32 26 21 24 26 26 24 22 22 24 24 23 23 22 22 27 30 32 36 38 40 41 41 46 50 45 37 33 33 37 35 32 30 25 21 20 19 19 19 21 21 19 17 17 16
55 55 55 55 54 52 51 51 49 47 47 49 50 49 48 48 48 49 47 41 41 45 44 42 42 41 40 41 40 40 40 39 40 41 39 37 37 36 33 31 32 33 34 32 27 25 27 26 25 25 24 25 25 25 24 24 24 25 27 31 35 39 42 43 43 45 49 47 43 41 37 38 41 36 31 30 26 23 22 19 19 20 21 22 21 20 19 19
57 58 58 58 58 57 54 54 53 51 49 49 51 52 51 52 51 50 47 44 46 48 47 46 46 45 45 44 43 42 42 42 42 43 42 41 42 40 37 34 34 34 33 31 31 31 30 28 27 28 26 25 26 26 25 25 24 25 27 31 35 38 43 45 44 46 46 42 41 42 41 44 44 37 34 32 28 25 22 20 20 20 20 21 23 23 22 21
59 59 60 61 61 61 59 57 56 55 54 52 53 54 55 55 53 51 49 48 48 48 49 49 49 49 49 47 45 44 43 43 43 44 45 45 45 44 40 38 37 36 34 34 35 34 33 32 30 28 25 24 24 24 24 23 24 25 25 28 33 37 41 43 43 45 45 43 43 44 45 48 46 39 35 32 30 27 23 22 22 23 23 24 25 25 23 21
59 60 61 62 63 63 62 61 59 58 58 57 56 56 56 55 55 54 53 52 51 50 51 52 51 51 50 49 48 46 45 44 42 44 47 48 47 45 42 39 38 37 36 36 36 35 36 34 28 27 28 26 25 24 23 26 28 27 26 29 34 35 37 39 40 42 43 45 44 44 48 49 44 40 37 34 33 29 26 25 25 26 26 26 26 25 24 22
61 61 62 63 64 64 64 64 63 61 61 60 60 59 57 56 57 57 57 56 55 54 52 51 51 52 51 50 50 49 48 46 43 44 47 49 49 47 45 42 40 39 39 37 36 35 38 34 26 28 31 30 27 25 25 28 29 28 29 32 32 28 29 35 38 38 42 47 44 42 47 47 44 43 39 36 34 30 29 27 26 27 27 25 25 25 24 23
63 62 63 65 65 66 66 65 65 64 64 63 63 62 60 59 60 60 60 59 59 58 55 52 52 53 53 52 52 52 52 50 48 48 47 48 51 49 47 44 41 41 40 38 37 37 38 37 30 30 33 31 27 26 28 30 30 31 32 30 27 25 28 34 39 39 42 46 43 41 46 47 45 44 40 36 35 33 31 28 24 25 25 23 22 22 24 24
65 64 64 65 66 67 67 67 66 66 66 66 65 64 64 63 62 61 62 62 62 61 60 58 55 54 55 55 54 54 55 55 53 52 51 50 52 50 47 46 44 42 39 38 39 38 38 40 36 33 33 31 29 30 33 34 33 32 31 28 28 30 31 34 38 40 41 42 39 36 41 44 43 41 39 37 36 34 31 27 23 23 22 20 18 18 20 23
68 67 66 66 67 68 68 68 68 67 68 68 67 66 66 64 63 63 64 64 64 64 64 64 61 58 57 58 57 56 58 58 57 56 55 54 54 51 48 47 45 43 40 39 41 39 38 41 40 37 35 33 34 38 39 37 35 33 33 33 34 34 34 33 35 37 38 39 36 32 35 37 36 37 39 37 33 30 28 25 23 22 20 18 16 15 16 18
70 68 68 68 68 68 69 69 69 69 68 68 67 67 67 66 65 65 65 65 66 66 66 66 65 63 61 60 60 59 60 61 60 59 58 56 54 52 49 47 46 45 42 41 41 40 40 44 43 38 36 38 41 44 42 38 36 36 37 38 38 36 36 36 36 37 38 40 38 34 34 31 27 30 36 37 32 28 26 24 24 23 20 17 16 17 17 16
71 69 68 69 69 68 69 70 70 70 69 68 67 67 67 67 66 66 67 68 68 68 68 67 67 66 64 62 62 62 62 63 63 62 61 58 56 54 49 42 38 39 42 45 46 44 43 46 45 41 41 44 44 42 40 39 37 36 37 38 37 36 36 37 39 39 39 41 40 37 34 30 24 24 29 33 34 33 31 28 27 25 20 17 17 19 21 18
73 70 68 70 70 69 68 69 70 71 70 68 68 67 66 67 68 68 69 70 71 71 71 71 71 70 69 67 65 65 65 65 66 66 64 61 58 56 52 44 36 35 40 46 48 46 43 43 46 46 45 45 43 40 40 40 38 36 37 36 35 37 39 39 40 40 38 40 40 38 38 33 25 21 23 29 34 33 30 29 28 25 21 19 19 20 23 22
75 71 69 69 70 70 69 68 68 70 70 69 69 68 67 69 70 71 72 72 73 74 74 74 74 74 74 72 69 69 70 69 69 68 67 65 61 58 57 55 51 48 44 42 41 38 38 44 50 50 47 43 42 41 43 42 40 40 40 37 36 38 39 37 37 38 38 40 40 40 42 36 26 21 20 26 31 29 25 25 25 24 22 22 22 21 22 23
73 70 66 67 68 69 68 67 68 69 69 70 71 71 70 71 72 73 74 74 75 75 76 77 77 77 78 77 74 72 73 73 72 71 70 69 66 64 63 62 61 56 49 46 44 39 40 48 51 49 49 49 46 46 48 48 46 45 43 40 38 38 37 38 38 38 40 42 41 43 45 39 27 20 19 23 28 27 24 25 24 22 24 25 23 21 23 24
68 64 60 62 65 65 64 65 67 67 68 70 71 72 72 73 73 74 75 76 77 78 79 79 80 80 80 79 78 76 76 76 75 75 74 72 71 69 68 65 62 59 53 52 54 52 51 53 52 52 56 57 55 54 53 51 50 48 46 43 41 39 38 39 40 42 45 45 42 44 46 40 30 23 21 23 28 28 26 26 26 24 26 28 26 25 26 25
62 57 53 54 59 60 59 61 63 64 64 66 67 68 70 71 72 72 74 76 77 78 81 81 82 82 82 81 81 80 79 78 78 78 77 74 72 71 70 67 64 62 58 52 51 53 55 55 56 59 60 59 55 51 49 49 50 50 48 47 44 40 39 39 42 46 46 43 42 43 43 39 33 28 24 23 28 31 28 27 28 27 27 28 29 28 26 23
50 48 45 43 48 52 53 54 56 58 60 62 64 64 66 67 69 69 70 72 74 76 79 81 81 82 83 82 82 82 81 80 80 81 79 77 74 72 72 70 66 64 61 56 52 53 54 56 60 63 63 61 55 48 45 47 49 49 48 48 46 42 39 41 46 47 45 43 43 41 38 38 36 31 27 24 24 29 32 31 29 26 27 31 32 31 27 24
35 34 33 32 34 38 42 45 48 51 54 57 59 60 61 62 64 65 66 68 71 73 76 78 78 80 83 83 83 83 82 81 81 82 81 79 76 74 73 72 69 66 63 60 57 56 57 58 60 62 63 61 57 51 46 47 49 49 48 48 48 46 43 43 45 43 42 43 42 37 35 37 35 33 31 25 18 20 29 34 30 25 25 30 31 30 29 26
24 22 22 22 21 25 30 34 38 42 45 48 51 54 56 57 60 62 62 64 64 66 70 74 75 77 82 85 83 82 82 81 81 83 82 81 79 76 72 72 71 69 66 65 62 60 60 60 59 60 62 61 57 53 50 49 50 51 50 49 49 48 46 44 42 40 39 41 39 34 35 36 36 35 32 25 18 16 23 33 35 32 29 28 28 30 32 33
17 16 15 14 14 16 21 26 30 33 35 38 41 44 47 50 53 55 57 59 60 60 63 68 71 75 80 83 83 82 81 81 82 83 83 83 81 79 75 72 72 71 69 68 67 64 63 63 61 60 62 62 59 54 51 51 52 52 52 51 51 50 47 44 43 40 40 41 38 35 36 36 36 37 35 29 26 23 24 31 35 36 35 32 30 31 35 38
13 12 12 11 10 12 16 20 24 26 28 31 34 36 39 41 43 46 49 51 54 56 58 62 67 70 74 77 78 78 80 82 82 82 84 85 84 83 80 75 72 73 72 71 71 68 66 65 63 61 60 61 58 52 49 51 52 54 56 54 53 51 48 46 46 43 41 41 39 38 40 37 33 34 35 34 32 31 30 31 32 34 35 34 32 31 32 33
12 12 13 11 10 12 14 17 19 21 24 28 32 32 33 34 35 37 40 42 46 52 55 58 61 64 67 68 69 72 75 79 82 83 85 87 87 86 85 80 75 74 73 74 73 71 69 67 65 62 60 59 58 51 43 43 48 56 62 59 52 49 48 48 45 40 36 36 37 41 42 36 30 31 34 36 37 36 34 34 34 36 37 37 36 34 33 34
Wind_Direction
316 319 321 321 322 322 323 324 324 327 329 336 342 344 346 341 334 326 317 311 305 304 307 311 306 282 262 252 244 240 233 230 242 245 214 211 213 215 213 217 224 215 209 204 205 205 196 189 185 182 175 169 171 171 158 153 167 165 152 156 175 226 261 288 298 321 325 323 329 335 353 357 360 0 356 324 268 247 259 260 259 257 260 267 264 261 224 205
312 316 317 319 322 324 326 327 326 325 325 326 328 333 340 343 344 341 334 324 314 307 302 303 307 303 282 263 251 243 238 233 237 235 217 227 227 223 219 214 216 214 202 196 205 210 208 198 186 183 178 174 173 172 166 159 166 165 156 150 152 179 319 307 314 317 298 334 350 339 350 332 347 25 356 342 332 259 246 243 241 237 237 252 261 267 250 229
309 309 309 312 314 317 319 322 323 322 325 324 324 323 324 332 340 344 346 342 330 320 310 304 301 301 298 280 263 247 241 238 237 232 224 235 242 244 241 225 212 207 200 197 200 205 210 203 189 183 177 174 177 176 168 166 173 170 161 155 154 137 48 314 320 318 302 339 353 343 355 321 353 30 355 358 11 1 224 234 243 232 227 237 241 259 261 251
306 305 305 306 306 308 310 313 315 315 318 318 320 320 318 319 322 334 343 346 344 336 328 318 309 299 293 290 280 258 244 239 238 233 228 232 241 247 248 235 220 207 200 198 196 201 207 203 192 184 179 176 179 180 169 168 184 179 168 160 148 118 77 24 333 320 313 333 338 344 3 339 359 42 11 346 338 272 243 238 247 223 234 253 247 250 257 258
302 303 303 303 302 303 305 308 310 312 313 314 316 316 316 314 311 316 323 336 344 344 343 336 331 318 294 285 287 275 253 242 237 234 231 232 238 245 244 234 226 216 206 200 197 201 204 202 197 187 180 180 180 182 171 168 185 178 161 148 110 98 90 50 1 337 325 326 330 344 349 326 341 40 148 262 225 238 252 245 226 208 243 275 270 259 259 254
295 296 296 297 299 300 302 305 307 309 311 312 313 312 313 313 310 307 307 315 324 334 345 346 347 342 322 289 278 282 269 249 235 230 230 232 235 240 241 233 228 224 214 204 201 201 201 201 200 190 182 185 188 187 176 173 184 169 143 130 103 82 40 26 5 352 331 321 331 335 328 320 335 10 82 126 162 225 247 223 283 267 258 264 272 275 267 241
287 286 287 288 291 295 298 300 303 305 307 309 310 310 311 311 310 307 304 302 304 313 325 341 350 348 347 322 276 273 275 265 245 232 229 230 234 238 240 236 231 231 219 210 207 203 201 200 199 197 189 187 194 192 177 179 188 173 141 121 109 74 20 14 3 357 337 320 331 328 322 326 334 357 43 75 98 135 30 84 194 292 302 290 279 283 278 249
280 280 280 282 286 291 293 297 300 303 305 307 307 308 309 309 308 306 305 303 300 298 302 318 330 339 346 337 309 277 279 285 280 253 235 231 235 237 239 236 233 231 223 215 209 205 202 197 198 202 194 189 197 196 180 181 189 184 170 141 117 80 24 7 3 5 351 331 328 323 319 319 325 348 22 49 69 68 15 24 109 290 309 320 292 285 301 287
279 277 277 278 282 286 290 294 297 301 303 304 306 307 307 307 305 304 303 302 302 297 297 301 302 314 321 323 331 311 292 291 291 277 247 231 233 238 239 237 232 229 227 222 214 212 205 194 198 202 198 197 202 205 194 188 193 194 188 168 138 109 38 360 357 354 340 331 324 316 313 313 314 336 14 31 49 53 350 336 350 307 311 313 279 271 291 291
278 278 277 277 278 281 285 288 292 296 298 299 301 303 304 304 304 303 302 300 301 297 294 296 295 294 294 300 316 317 302 289 283 281 272 238 231 237 240 237 232 228 228 228 222 219 207 197 200 202 204 205 204 210 205 199 206 210 203 190 171 148 102 14 344 318 319 322 321 314 306 310 311 324 7 12 27 39 341 334 348 344 331 316 276 252 263 266
278 277 277 277 277 278 280 283 286 289 291 292 293 295 297 298 301 301 301 301 300 295 292 293 292 288 285 285 291 296 294 293 289 278 278 252 231 234 239 239 234 230 227 228 225 213 205 201 204 206 206 208 208 212 211 210 222 227 216 207 196 176 162 144 268 291 312 313 316 317 300 300 303 312 5 6 19 42 341 340 349 351 346 327 310 274 262 246
279 278 277 276 276 277 277 279 281 282 284 284 285 288 289 290 293 295 296 300 302 299 295 293 291 287 282 278 279 280 275 286 294 287 275 262 242 234 238 241 237 233 227 225 221 212 209 208 212 212 208 211 214 213 214 218 228 233 226 222 219 205 187 173 214 267 308 302 304 312 301 295 295 308 28 25 23 31 347 342 346 350 351 331 306 275 263 244
281 280 278 277 276 276 276 276 277 278 278 278 279 280 281 282 284 287 290 294 296 296 299 299 296 289 280 275 267 266 261 263 278 286 282 273 265 246 240 242 241 237 230 226 221 215 214 217 223 220 211 214 218 217 217 219 225 232 236 240 243 233 208 185 199 229 281 286 291 302 301 292 286 301 28 31 24 22 352 342 341 346 350 328 297 265 238 238
284 282 280 278 277 275 274 274 275 274 274 274 274 274 274 276 278 280 283 286 287 288 293 297 297 289 277 274 267 268 261 233 248 266 276 272 264 255 246 244 245 242 234 229 225 222 220 222 227 224 217 216 216 221 224 225 229 234 243 256 262 252 227 205 201 188 244 273 284 300 301 287 279 293 345 358 14 17 350 332 326 334 340 328 296 266 219 231
285 283 281 280 278 276 274 274 274 274 273 273 273 272 271 273 276 277 277 279 281 282 283 285 287 283 278 281 281 268 261 243 237 245 257 261 259 257 251 245 247 246 240 234 230 228 226 227 230 229 226 216 210 216 224 233 237 238 247 262 277 266 236 204 182 129 237 267 279 299 296 284 281 295 321 335 357 7 353 318 299 315 326 329 297 270 224 205
283 282 281 280 279 277 275 274 274 275 274 273 274 273 272 274 276 274 273 275 277 278 277 276 276 276 279 284 279 261 259 256 243 232 239 249 254 257 256 249 244 246 246 241 235 233 231 232 233 234 231 222 213 211 218 231 236 235 243 255 285 275 220 186 190 229 264 262 279 297 292 289 295 310 325 331 338 348 354 317 279 297 308 322 303 271 244 192
282 281 280 279 279 279 279 277 275 275 274 274 274 274 275 276 276 274 274 275 276 276 275 275 274 272 271 275 273 263 257 258 255 243 234 234 240 246 252 251 243 242 246 246 242 238 237 236 234 233 234 231 223 214 219 230 232 233 239 252 281 250 193 177 193 231 260 266 291 309 300 296 308 323 331 329 327 330 342 330 266 281 295 310 309 267 243 210
280 281 280 279 278 278 279 280 279 277 276 275 274 275 275 274 273 274 275 276 275 275 276 277 275 271 266 266 268 265 259 258 262 258 243 232 233 236 241 247 248 243 244 250 250 245 242 241 237 234 233 234 230 226 230 241 231 233 233 241 249 210 184 171 179 204 241 265 290 306 303 295 304 316 322 323 320 316 322 321 265 261 284 302 304 274 236 226
275 277 278 279 278 277 277 278 279 278 278 279 277 275 276 275 273 271 273 275 274 273 274 274 273 272 269 265 263 266 264 256 256 258 254 246 238 234 236 243 249 248 246 250 254 253 251 246 241 239 238 239 239 240 242 234 224 226 216 209 218 205 194 178 170 193 223 249 271 289 300 295 300 311 316 316 314 308 303 305 273 244 259 286 294 281 241 226
272 273 275 276 277 276 275 274 275 275 277 279 280 279 278 278 275 271 270 269 269 269 271 271 268 270 273 269 263 262 260 255 254 255 256 255 248 239 237 238 243 248 250 250 250 253 253 250 247 245 244 243 243 243 235 221 219 220 208 201 212 221 211 188 167 190 222 247 264 283 297 295 300 308 310 308 307 305 293 285 273 235 239 258 278 276 245 225
271 271 272 273 274 274 273 272 272 273 273 275 279 280 280 278 274 270 266 265 267 265 266 268 265 265 269 268 265 261 261 262 263 260 256 256 255 248 242 238 238 243 247 246 244 245 251 262 264 250 243 240 239 237 230 219 216 219 211 201 210 216 200 182 173 193 222 242 259 277 286 290 298 303 302 299 298 300 287 273 269 238 228 239 255 266 243 222
269 269 269 270 271 272 271 269 269 270 270 271 274 276 277 274 270 268 266 268 272 268 264 265 264 259 261 269 270 263 260 261 259 259 257 255 257 253 246 241 236 236 239 241 244 249 259 286 286 255 242 238 234 232 230 221 216 218 212 200 199 197 186 178 178 192 218 239 251 265 273 285 295 296 295 293 294 295 285 270 263 246 225 227 239 253 239 213
267 266 266 267 268 270 270 268 267 267 267 268 269 270 271 270 269 270 269 267 272 271 266 262 261 259 261 267 265 257 256 259 255 256 258 257 258 255 250 247 239 233 235 239 246 251 258 275 266 250 240 237 234 232 231 224 218 217 214 201 188 190 187 172 172 190 218 240 249 259 270 279 284 285 288 291 294 292 287 275 259 253 230 223 236 246 242 215
269 266 265 264 265 267 269 268 266 266 265 266 267 267 268 268 267 268 268 263 260 268 270 264 258 260 259 257 259 262 264 263 258 256 257 258 259 257 256 251 243 237 235 237 241 244 245 244 242 241 237 236 234 232 232 229 225 219 216 206 184 184 188 165 166 195 216 229 241 249 258 264 269 275 281 287 292 292 289 279 262 256 239 228 238 245 242 223
270 269 266 265 263 264 267 267 266 265 264 264 265 265 265 266 266 266 266 263 255 259 269 267 261 258 257 257 263 267 264 261 259 256 253 254 256 257 257 253 249 245 240 237 238 237 236 238 238 239 239 237 234 232 232 231 231 224 219 215 189 185 196 182 178 200 211 218 232 235 240 252 263 270 274 279 285 290 289 280 269 262 246 232 237 243 240 226
270 269 268 267 265 263 265 265 265 264 263 263 263 263 263 264 265 265 265 263 256 252 260 266 265 260 257 260 262 261 261 261 258 255 255 255 256 258 258 256 253 250 246 242 240 235 231 234 236 237 238 240 239 236 232 230 232 227 219 217 198 190 198 192 188 201 204 197 221 234 238 248 257 262 268 275 281 283 281 277 276 270 252 233 231 237 237 228
269 269 268 267 266 264 264 265 265 264 263 262 260 260 261 261 262 264 264 263 258 251 253 259 262 260 257 257 258 259 263 263 258 257 259 258 254 254 255 256 253 249 249 249 246 239 232 233 236 237 238 240 243 244 239 234 235 228 211 211 205 193 191 187 189 204 205 190 208 234 242 247 253 257 265 272 276 275 272 275 285 279 259 237 225 227 230 228
268 268 267 266 265 264 262 264 265 264 263 262 260 258 259 260 260 261 262 261 258 254 254 254 256 257 256 256 257 259 259 259 261 261 256 253 252 251 253 258 255 246 247 252 248 237 235 234 234 236 238 238 242 248 244 241 241 223 204 210 206 197 190 185 193 205 208 207 208 221 237 245 251 256 262 267 267 267 268 279 293 286 268 248 231 224 223 225
268 267 266 265 265 264 261 261 263 265 264 261 260 259 258 259 259 259 258 258 258 256 254 253 254 256 255 254 254 255 256 257 260 259 256 255 254 252 253 256 255 248 249 254 248 238 242 240 234 234 234 234 236 238 238 242 242 217 205 212 206 200 192 187 198 205 208 216 212 210 226 241 249 253 254 256 257 260 270 285 294 287 272 257 244 234 225 220
267 266 265 265 264 263 262 259 259 262 264 262 260 259 259 258 258 258 257 256 258 257 255 254 253 253 253 254 252 251 253 254 256 256 256 255 253 251 249 249 252 253 254 257 252 245 246 242 238 238 235 230 227 228 230 238 238 215 209 213 207 203 198 194 203 207 211 220 218 210 218 234 244 247 247 248 249 255 272 280 282 281 272 261 250 242 235 226
267 266 265 264 263 263 263 261 257 257 260 262 261 259 258 258 257 256 256 257 258 257 255 253 251 248 249 251 250 249 249 250 252 254 255 255 254 252 250 250 254 256 257 260 261 256 251 248 247 246 241 234 230 228 227 232 233 219 211 213 210 206 205 205 208 209 216 224 224 217 215 227 240 244 246 249 249 252 263 267 267 270 271 267 257 248 244 238
268 267 267 265 263 263 263 262 259 256 255 258 259 259 258 257 256 256 257 258 258 256 255 253 251 249 247 247 247 247 248 248 250 253 254 254 253 252 252 253 256 257 256 258 260 256 251 251 250 247 242 238 237 234 229 228 230 224 215 213 213 209 209 214 214 213 221 228 227 221 218 227 240 246 247 249 251 253 257 259 256 261 268 269 263 256 252 246
270 269 269 267 265 264 264 263 261 259 256 254 256 257 257 256 255 256 257 256 256 256 256 255 254 252 250 247 247 247 248 248 248 250 252 251 251 250 249 250 251 253 254 254 253 251 248 247 246 245 243 241 240 239 235 232 234 235 225 218 219 215 215 221 220 217 224 231 228 221 221 230 239 245 246 246 250 253 255 253 251 259 268 267 263 259 256 249
271 270 270 269 267 266 266 265 263 262 260 257 255 255 255 255 256 256 256 254 253 253 254 254 254 253 251 250 249 248 248 248 248 249 250 249 250 249 247 248 250 252 254 254 253 252 251 250 250 251 252 248 245 243 242 241 238 240 236 230 230 226 223 225 223 221 225 230 228 221 222 229 235 244 248 248 250 254 256 254 253 261 268 265 261 258 254 248
270 270 269 268 268 267 267 266 265 263 262 261 258 256 254 254 255 255 254 253 251 250 252 253 253 252 252 252 251 250 248 248 247 248 249 249 249 249 248 247 249 251 252 253 255 255 255 254 254 255 253 247 243 241 239 239 237 236 234 233 233 230 228 229 229 229 228 230 231 227 228 233 238 245 246 243 247 254 257 258 258 262 264 264 262 258 252 247
269 269 268 267 266 266 266 265 265 264 262 261 260 258 256 255 255 255 254 253 251 250 250 250 251 251 251 251 251 250 248 245 244 244 247 249 248 247 246 245 244 247 249 251 252 254 254 253 248 249 250 246 243 238 235 237 238 237 235 235 238 236 233 235 236 234 231 233 237 236 235 237 240 243 242 239 244 251 254 255 257 259 261 262 262 259 254 250
268 268 267 266 265 264 263 263 263 262 261 260 259 259 258 256 255 254 254 253 251 250 248 245 246 248 249 248 248 248 247 244 241 240 242 246 247 246 245 244 242 242 245 247 248 248 250 250 243 241 246 247 244 238 235 235 235 236 238 239 240 238 233 232 233 232 231 235 241 240 238 239 240 241 241 240 243 247 248 250 252 255 257 258 261 261 256 252
269 269 268 266 264 263 261 260 260 259 258 258 258 257 256 255 254 253 252 251 250 249 248 244 241 241 244 246 246 246 246 245 241 239 238 239 243 245 245 245 242 241 242 244 245 245 246 247 243 239 240 240 238 235 232 231 230 233 237 238 236 235 233 232 234 234 233 236 242 243 240 240 242 243 243 242 242 244 244 245 246 249 253 256 261 267 264 254
269 269 270 267 265 264 262 260 259 257 256 256 255 254 253 252 250 249 249 249 249 248 247 246 242 237 237 240 242 242 244 245 243 241 239 237 238 240 241 244 243 241 239 240 242 243 244 246 244 239 237 234 233 234 232 230 229 228 230 231 230 233 236 238 242 244 242 240 244 248 246 244 245 245 244 243 242 243 244 243 245 250 252 253 256 268 275 261
270 270 271 269 266 265 263 261 259 257 256 255 253 252 251 249 247 246 245 245 245 246 246 245 244 240 235 235 236 237 240 243 243 242 242 241 240 238 237 240 243 241 240 239 240 241 241 243 242 238 237 235 233 237 239 236 232 229 229 231 230 231 233 236 241 246 245 244 244 247 251 253 250 245 243 243 241 240 241 243 247 252 250 248 253 262 271 267
273 272 272 270 267 266 264 261 260 258 256 254 252 251 249 248 246 243 242 241 240 241 241 241 242 241 237 232 230 230 233 238 240 241 242 241 241 240 237 236 241 245 243 240 237 237 238 242 243 238 236 239 238 239 242 241 237 233 234 237 239 238 237 238 242 243 244 247 246 248 256 261 258 250 244 242 240 236 238 242 245 250 253 253 255 262 266 265
275 274 272 270 268 266 264 262 260 258 256 254 251 249 247 246 244 242 240 239 238 237 237 237 237 237 235 231 227 224 226 231 236 238 240 239 239 238 235 231 231 236 240 240 239 239 239 241 243 239 236 239 240 239 239 238 236 235 233 233 237 240 240 241 244 246 247 252 252 253 259 262 258 255 246 238 236 237 242 247 246 248 255 256 255 261 264 262
276 275 273 270 268 266 263 261 259 257 255 253 251 248 245 243 242 241 239 237 237 236 235 235 234 234 234 232 228 223 222 225 230 233 235 235 234 233 232 232 233 230 229 235 240 243 242 238 237 237 235 234 235 236 236 234 229 229 228 225 226 234 238 240 244 249 251 254 256 256 259 260 256 255 249 235 232 236 241 246 246 244 247 251 253 253 253 257
278 276 273 270 267 265 262 259 256 254 253 252 249 247 245 242 240 240 239 237 236 235 234 233 232 232 233 232 229 224 221 221 223 226 230 231 231 231 231 234 236 230 223 224 229 232 235 234 233 234 233 229 225 225 229 230 228 228 230 226 223 226 233 235 237 241 244 246 249 252 257 260 257 254 249 231 224 224 226 232 239 242 244 249 250 244 243 252
279 276 271 268 266 262 258 255 254 252 251 249 248 247 245 242 240 238 237 236 235 233 232 232 231 231 231 231 229 226 222 220 220 222 225 227 228 229 230 231 231 228 223 222 224 225 227 230 231 232 231 229 226 225 228 232 234 236 237 234 226 221 224 232 234 235 238 240 241 247 254 260 259 253 244 225 214 212 212 218 228 239 245 247 249 247 245 250
281 276 269 264 263 259 254 252 251 249 248 246 245 245 243 242 240 238 235 234 234 233 232 231 230 230 229 229 228 227 224 221 219 220 220 222 223 224 227 227 226 226 223 218 219 223 225 227 229 231 230 230 231 231 233 234 236 238 240 239 235 225 221 227 233 237 240 240 241 247 253 258 259 256 248 230 215 212 210 210 218 232 244 246 245 246 245 247
281 277 270 262 258 255 251 249 247 246 245 244 242 241 240 239 238 237 236 234 233 233 233 232 231 230 228 227 227 226 225 222 220 219 218 218 218 219 222 223 222 222 220 214 213 218 223 227 230 232 231 230 230 229 227 229 233 237 239 240 242 236 227 226 232 239 243 242 243 247 250 254 258 257 254 247 230 218 213 212 215 226 241 246 243 240 239 244
281 277 272 263 255 252 249 246 245 243 242 242 241 240 238 238 237 235 234 234 234 234 233 232 232 232 229 227 226 226 225 223 221 219 218 216 214 214 216 218 218 217 215 211 211 214 219 225 231 233 232 230 229 226 222 222 227 232 235 238 241 241 237 235 236 239 242 244 247 247 247 251 254 253 253 253 242 221 214 215 219 225 239 250 252 250 246 245
280 277 275 269 258 248 243 242 242 241 240 241 242 241 239 238 237 236 234 233 233 234 235 233 232 233 230 228 227 226 224 223 221 219 217 214 211 210 211 211 213 213 210 208 210 213 216 221 226 230 232 232 229 226 221 217 220 224 227 232 236 238 239 241 242 241 240 243 247 246 244 246 246 247 246 237 221 209 207 213 220 225 232 244 254 258 254 250
278 277 279 278 265 247 238 237 239 240 239 241 243 242 242 240 239 238 237 236 234 234 236 236 234 233 231 228 228 226 224 223 221 218 216 213 209 208 207 205 206 209 207 207 210 212 215 219 223 226 231 233 231 228 223 218 216 217 221 226 232 234 236 239 242 242 240 240 242 241 239 239 238 241 243 233 219 211 206 209 218 224 227 233 243 251 252 254
277 274 277 276 264 251 239 233 235 237 237 240 242 242 243 244 243 240 239 239 237 234 236 238 237 235 233 231 230 229 225 223 220 217 215 212 209 207 206 203 202 204 205 206 209 213 214 217 220 224 228 230 229 228 226 221 216 214 215 220 226 230 230 233 237 241 243 243 242 238 237 237 235 236 240 239 232 225 216 212 215 219 223 228 236 244 249 249
277 271 273 271 262 256 248 240 237 235 233 236 240 241 242 243 246 246 242 241 242 239 237 238 239 239 236 234 234 233 229 225 221 216 214 212 209 207 206 204 201 202 203 204 208 213 214 214 216 221 225 227 226 223 223 224 220 216 214 215 219 223 225 229 234 239 245 248 246 242 239 239 235 231 234 237 236 232 225 218 217 218 221 226 232 235 238 238